Gemsa, Egypt

8:01 PM EET on May 28, 2017 (GMT +0200)
Gemsa

Weather History for 62463 - April, 2013

Change the Weather History Date:

Thursday, April 25, 2013

  Actual Average Record
Temperature  
Mean Temperature 78 °F -  
Max Temperature 89 °F 88 °F - ()
Min Temperature 66 °F 71 °F - ()
Cooling Degree Days 12    
Growing Degree Days 28 (Base 50)    
Moisture  
Dew Point 52 °F    
Average Humidity 39    
Maximum Humidity 53    
Minimum Humidity 23    
Precipitation  
Precipitation 0.00 in - - ()
Sea Level Pressure  
Sea Level Pressure 29.88 in    
Wind  
Wind Speed 14 mph ()    
Max Wind Speed 23 mph    
Max Gust Speed -    
Visibility 6.0 miles    
Events      
T = Trace of Precipitation, MM = Missing Value Source: Averaged Metar Reports

Daily Weather History Graph

Daily Weather History Graph

Search for Another Location

Airport or City:

Trip Planner

Search our weather history database for the weather conditions in past years. The results will help you decide how hot, cold, wet, or windy it might be!

Date:

Astronomy

Apr. 25, 2013 Rise Set
Actual Time 5:11 AM EET 6:14 PM EET
Civil Twilight 4:46 AM EET 6:38 PM EET
Nautical Twilight 4:18 AM EET 7:07 PM EET
Astronomical Twilight 3:48 AM EET 7:37 PM EET
Moon 6:02 PM EET (4/25) 4:37 AM EET (4/25)
Length of Visible Light 13h 52m
Length of Day
13h 03m
Full, 100% of the Moon is Illuminated
Apr 25
Full
Apr 25
Full
May 2
Last Quarter
May 10
New
May 18
First Quarter

Hourly Weather History & Observations

Time (EET) Temp. Heat Index Dew Point Humidity Pressure Visibility Wind Dir Wind Speed Gust Speed Precip Events Conditions
12:00 AM 71.6 °F - 50.0 °F 46% 29.95 in - NNW 11.5 mph - N/A   Clear
1:00 AM 69.8 °F - 50.0 °F 49% 29.92 in - NW 11.5 mph - N/A   Clear
2:00 AM 69 °F - 49 °F 38% 29.92 in 6 mi NW 11.5 mph - -  
2:00 AM 68.0 °F - 48.2 °F 49% 29.92 in - NW 11.5 mph - N/A   Clear
3:00 AM 68.0 °F - 48.2 °F 49% 29.89 in - NW 13.8 mph - N/A   Clear
5:00 AM 66.2 °F - 46.4 °F 49% 29.92 in - North 8.1 mph - N/A   Clear
6:00 AM 69.8 °F - 51.8 °F 53% 29.92 in - NNW 13.8 mph - N/A   Clear
7:00 AM 71.6 °F - 51.8 °F 50% 29.92 in - North 16.1 mph - N/A   Clear
8:00 AM 76 °F - 50 °F 29% 29.95 in 6 mi North 19.6 mph - -  
8:00 AM 75.2 °F - 50.0 °F 41% 29.95 in - North 19.6 mph - N/A   Clear
9:00 AM 78.8 °F - 51.8 °F 39% 29.95 in - North 20.7 mph - N/A   Clear
10:00 AM 82.4 °F 81.4 °F 53.6 °F 37% 29.95 in - North 20.7 mph - N/A   Clear
11:00 AM 84.2 °F 83.5 °F 57.2 °F 40% 29.92 in - North 23.0 mph - N/A   Clear
12:00 PM 86.0 °F 85.4 °F 59.0 °F 40% 29.89 in - North 20.7 mph - N/A   Clear
1:00 PM 86.0 °F 84.9 °F 57.2 °F 37% 29.86 in - North 16.1 mph - N/A   Clear
2:00 PM 89 °F - 56 °F 23% 29.86 in 6 mi North 17.3 mph - -   Clear
2:00 PM 89.6 °F 87.7 °F 55.4 °F 31% 29.86 in - North 17.3 mph - N/A   Clear
3:00 PM 87.8 °F 86.5 °F 57.2 °F 35% 29.83 in - North 13.8 mph - N/A   Clear
4:00 PM 87.8 °F 86.5 °F 57.2 °F 35% 29.80 in - North 13.8 mph - N/A   Clear
5:00 PM 86.0 °F 84.2 °F 53.6 °F 33% 29.80 in - North 20.7 mph - N/A   Clear
6:00 PM 80.6 °F 81.1 °F 59.0 °F 48% 29.80 in - North 20.7 mph - N/A   Clear
7:00 PM 80.6 °F 80.5 °F 55.4 °F 42% 29.80 in - NNW 20.7 mph - N/A   Clear
8:00 PM 80 °F - 51 °F 26% 29.83 in 6 mi NW 20.7 mph - -  
8:00 PM 80.6 °F - 51.8 °F 37% 29.83 in - NW 20.7 mph - N/A   Clear
9:00 PM 78.8 °F - 46.4 °F 32% 29.83 in - NW 15.0 mph - N/A   Clear
10:00 PM 78.8 °F - 44.6 °F 30% 29.83 in - NW 17.3 mph - N/A   Clear
11:00 PM 77.0 °F - 44.6 °F 32% 29.83 in - NW 11.5 mph - N/A   Clear